Thompson, Ohio, United States (44086)
Lat: 41.69N, Lon: 81.05W
Wx Zone: OHZ013
Local Info
Past Weather Observations for Thursday, April 30, 2015

NOTE: This archive is for the closest National Weather Service station to Thompson. Information may differ from the station used for current weather conditions.

Click here for Long-term Archive

Time Weather Temperature Dewpoint Humidity Pressure Winds Precip Visibility
23:53
Overcast
45°F / 7°C 41°F / 5°C 87% 29.95 in
(1014 mb)
NW 4.6 mph
(NW 7 kph)
- 10SM
22:53
Overcast
45°F / 7°C 41°F / 5°C 87% 29.95 in
(1014 mb)
NW 4.6 mph
(NW 7 kph)
- 9SM
21:53
Mostly Cloudy
45°F / 7°C 43°F / 6°C 93% 29.95 in
(1014 mb)
NNW 3.5 mph
(NNW 6 kph)
- 7SM
21:14
Overcast
45°F / 7°C 43°F / 6°C 93% 29.92 in
(1013 mb)
NW 4.6 mph
(NW 7 kph)
- 7SM
20:53
Overcast
Fog And Mist
45°F / 7°C 43°F / 6°C 93% 29.92 in
(1013 mb)
NW 4.6 mph
(NW 7 kph)
- 6SM
20:34
Overcast
Fog And Mist
45°F / 7°C 43°F / 6°C 93% 29.92 in
(1013 mb)
NW 5.8 mph
(NW 9 kph)
- 6SM
20:09
Overcast
Fog And Mist
45°F / 7°C 43°F / 6°C 93% 29.92 in
(1013 mb)
NW 5.8 mph
(NW 9 kph)
- 6SM
19:53
Overcast
Fog And Mist
46°F / 8°C 45°F / 7°C 93% 29.92 in
(1013 mb)
NW 5.8 mph
(NW 9 kph)
- 5SM
19:38
Overcast
Fog And Mist
46°F / 8°C 45°F / 7°C 93% 29.92 in
(1013 mb)
NNW 8.1 mph
(NNW 13 kph)
- 4SM
19:16
Overcast
Fog And Mist
46°F / 8°C 45°F / 7°C 93% 29.89 in
(1012 mb)
NNW 8.1 mph
(NNW 13 kph)
- 3SM
19:04
Overcast
Fog And Mist
46°F / 8°C 45°F / 7°C 93% 29.89 in
(1012 mb)
NW 5.8 mph
(NW 9 kph)
- 2 1/2SM
18:53
Overcast
Fog And Mist
46°F / 8°C 45°F / 7°C 93% 29.89 in
(1012 mb)
NW 4.6 mph
(NW 7 kph)
- 2SM
18:22
Overcast
Fog And Mist
46°F / 8°C 45°F / 7°C 93% 29.89 in
(1012 mb)
Variable 5.8 mph
(Variable 9 kph)
- 2SM
18:12
Overcast
Fog And Mist
46°F / 8°C 45°F / 7°C 93% 29.89 in
(1012 mb)
NNW 4.6 mph
(NNW 7 kph)
- 2 1/2SM
17:53
Overcast
Fog And Mist
46°F / 8°C 43°F / 6°C 87% 29.89 in
(1012 mb)
N 4.6 mph
(N 7 kph)
- 3SM
16:53
Overcast
Fog And Mist
45°F / 7°C 41°F / 5°C 87% 29.89 in
(1012 mb)
NNW 4.6 mph
(NNW 7 kph)
- 3SM
16:01
Overcast
Fog And Mist
43°F / 6°C 41°F / 5°C 93% 29.86 in
(1011 mb)
NW 4.6 mph
(NW 7 kph)
- 5SM
15:53
Overcast
Fog And Mist
43°F / 6°C 41°F / 5°C 93% 29.86 in
(1011 mb)
NW 4.6 mph
(NW 7 kph)
0.00 in
(0.00 mm)
6SM
15:33
Overcast
43°F / 6°C 39°F / 4°C 87% 29.86 in
(1011 mb)
NNW 5.8 mph
(NNW 9 kph)
0.00 in
(0.00 mm)
7SM
15:21
Overcast
43°F / 6°C 39°F / 4°C 87% 29.86 in
(1011 mb)
NNW 5.8 mph
(NNW 9 kph)
0.00 in
(0.00 mm)
7SM
14:53
Overcast
Fog And Mist
43°F / 6°C 41°F / 5°C 93% 29.86 in
(1011 mb)
NNW 5.8 mph
(NNW 9 kph)
0.00 in
(0.00 mm)
4SM
14:12
Overcast
Light Rain
45°F / 7°C 41°F / 5°C 87% 29.83 in
(1010 mb)
NNW 8.1 mph
(NNW 13 kph)
0.00 in
(0.00 mm)
8SM
13:53
Overcast
45°F / 7°C 41°F / 5°C 87% 29.83 in
(1010 mb)
N 5.8 mph
(N 9 kph)
- 10SM
13:31
Overcast
45°F / 7°C 41°F / 5°C 87% 29.83 in
(1010 mb)
NW 4.6 mph
(NW 7 kph)
- 10SM
12:53
Overcast
45°F / 7°C 39°F / 4°C 81% 29.83 in
(1010 mb)
NW 5.8 mph
(NW 9 kph)
0.00 in
(0.00 mm)
10SM
11:53
Overcast
45°F / 7°C 39°F / 4°C 81% 29.83 in
(1010 mb)
N 4.6 mph
(N 7 kph)
0.00 in
(0.00 mm)
10SM
10:53
Overcast
Light Rain
45°F / 7°C 37°F / 3°C 76% 29.83 in
(1010 mb)
N 4.6 mph
(N 7 kph)
0.00 in
(0.00 mm)
10SM
10:31
Overcast
45°F / 7°C 37°F / 3°C 76% 29.83 in
(1010 mb)
Variable 5.8 mph
(Variable 9 kph)
- 10SM
09:53
Overcast
43°F / 6°C 37°F / 3°C 81% 29.8 in
(1009 mb)
N 6.9 mph
(N 11 kph)
- 10SM
08:53
Overcast
43°F / 6°C 37°F / 3°C 81% 29.8 in
(1009 mb)
NW 9.2 mph
(NW 15 kph)
- 10SM
07:53
Overcast
43°F / 6°C 37°F / 3°C 81% 29.8 in
(1009 mb)
NNW 5.8 mph
(NNW 9 kph)
- 10SM
07:45
Overcast
43°F / 6°C 37°F / 3°C 81% 29.8 in
(1009 mb)
NNW 6.9 mph
(NNW 11 kph)
- 10SM
06:53
Mostly Cloudy
41°F / 5°C 37°F / 3°C 87% 29.77 in
(1008 mb)
NW 8.1 mph
(NW 13 kph)
- 10SM
05:53
Partly Cloudy
Fog And Mist
39°F / 4°C 37°F / 3°C 93% 29.77 in
(1008 mb)
Calm - 5SM
04:53
Clear
Fog And Mist
36°F / 2°C 34°F / 1°C 93% 29.74 in
(1007 mb)
Calm - 6SM
03:53
Clear
Fog And Mist
37°F / 3°C 36°F / 2°C 93% 29.74 in
(1007 mb)
Calm - 5SM
02:53
Mostly Cloudy
39°F / 4°C 36°F / 2°C 87% 29.74 in
(1007 mb)
Calm - 7SM
01:53
Partly Cloudy
41°F / 5°C 36°F / 2°C 81% 29.74 in
(1007 mb)
Calm - 8SM
00:53
Clear
39°F / 4°C 36°F / 2°C 87% 29.77 in
(1008 mb)
Calm - 9SM
Time Weather Temperature Dewpoint Humidity Pressure Winds Precip Visibility


Weather for websites

WeatherForYou.com, LLC is not responsible for any damages or problems caused by this service. Current weather conditions are obtained from the closest station including government and personal stations which may have varying degrees of accuracy. Weather forecasts are derived from the NOAA NDFD. Like all things, this site belongs to Jesus Christ... He just trusts us to maintain it. If you have any questions or comments email webmaster@weatherforyou.com

Copyright © 2015, WeatherForYou.com LLC. All rights reserved.